SCP
0 0 0 0 0 0 0 0 0 0 0 0 0 0 0 0 0 0 0 0 0 0 0 0 0 0 0 0 0 0 0 0 0 0 0 0 0 0 0 0 0 0 0
0 0 0 0 0 0 0 0 0 0 0 0 0 0 0 0 0 0 0 0 0 0 0 0 0 0 0 0 0 0 0 0 0 0 0 0 0 0 0 0 0 0 0
0 0 0 0 0 0 0 0 0 0 0 0 0 0 0 0 0 0 0 0 0 0 0 0 0 0 0 0 0 0 0 0 0 0 0 0 0 0 0 0 0 0 0
0 0 0 0 0 0 0 0 0 0 0 0 0 0 0 0 0 0 0 0 0 0 0 0 0 0 0 0 0 0 0 0 0 0 0 0 0 0 0 0 0 0 0
0 0 0 0 0 0 0 0 0 0 0 0 0 0 0 0 0 0 0 0 0 0 0 0 0 0 0 0 0 0 0 0 0 0 0 0 0 0 0 0 0 0 0
0 0 0 0 0 0 0 0 0 0 0 0 0 0 0 0 0 0 0 0 0 0 0 0 0 0 0 0 0 0 0 0 0 0 0 0 0 0 0 0 0 0 0
0 0 0 0 0 0 0 0 0 0 0 0 0 0 0 0 0 0 0 0 0 0 0 0 0 0 0 0 0 0 0 0 0 0 0 0 0 0 0 0 0 0 0
0 0 0 0 -0 0 0 0 0 0 0 0 0 0 0 0 0 0 0 0 0 0 0 0 0 0 0 0 0 0 0 0 0 0 0 0 0 0 0 0 0 0 0
0 0 0 0 0 0 0 0 0 0 0 0 0 0 0 0 0 0 0 0 0 0 0 0 0 0 0 0 0 0 0 0 0 0 0 0 0 0 0 0 0 0 0
0 0 0 0 0 0 0 0 0 0 0 0 0 0 0 0 0 0 0 0 0 0 0 0 0 0 0 0 0 0 0 0 0 0 0 0 0 0 0 0 0 0 0
0 0 0 0 0 0 0 0 0 0 0 0 0 0 0 0 0 0 0 0 0 0 0 0 0 0 0 0 0 0 0 0 0 0 0 0 0 0 0 0 0 0 0
0 0 0 0 0 0 0 0 0 0 0 0 0 0 0 0 0 0 0 0 0 0 0 0 0 0 0 0 0 0 0 0 0 0 0 0 0 0 0 0 0 0 0
0 0 0 0 0 0 0 0 0 0 0 0 0 0 0 0 0 0 0 0 0 0 0 0 0 0 0 0 0 0 0 0 0 0 0 0 0 0 0 0 0 0 0
0 0 0 0 0 0 0 0 0 0 0 0 0 0 0 0 0 0 0 0 0 0 0 0 0 0 0 0 0 0 0 0 0 0 0 0 0 0 0 0 0 0 0
0 0 0 0 0 0 0 0 0 0 0 0 0 0 0 0 0 0 0 0 0 0 0 0 0 0 0 0 0 0 0 0 0 0 0 0 0 0 0 0 0 0 0
0 0 0 0 0 0 0 0 0 0 0 0 0 0 0 0 0 0 0 0 0 0 0 0 0 0 0 0 0 0 0 0 0 0 0 0 0 0 0 0 0 0 0
0 0 0 0 0 0 0 0 0 0 0 0 0 0 0 0 0 0 0 0 0 0 0 0 0 0 0 0 0 0 0 0 0 0 0 0 0 0 0 0 0 0 0
0 0 0 0 0 0 0 0 0 0 0 0 0 0 0 0 0 0 0 0 0 0 0 0 0 0 0 0 0 0 0 0 0 0 0 0 0 0 0 0 0 0 0
0 0 0 0 0 0 0 0 0 0 0 0 0 0 0 0 0 0 0 0 0 0 0 0 0 0 0 0 0 0 0 0 0 0 0 0 0 0 0 0 0 0 0
0 0 0 0 0 0 0 0 0 0 0 0 0 0 0 0 0 0 0 0 0 0 0 0 0 0 0 0 0 0 0 0 0 0 0 0 0 0 0 0 0 0 0
0 0 0 0 0 0 0 0 0 0 0 0 0 0 0 0 0 0 0 0 0 0 0 0 0 0 0 0 0 0 0 0 0 0 0 0 0 0 0 0 0 0 0
0 0 0 0 0 0 0 0 0 0 0 0 0 0 0 0 0 0 0 0 0 0 0 0 0 0 0 0 0 0 0 0 0 0 0 0 0 0 0 0 0 0 0
0 0 0 0 0 0 0 0 0 0 0 0 0 0 0 0 0 0 0 0 0 0 0 0 0 0 0 0 0 0 0 0 0 0 0 0 0 0 0 0 0 0 0
0 0 0 0 0 0 0 0 0 0 0 0 0 0 0 0 0 0 0 0 0 0 0 0 0 0 0 0 0 0 0 0 0 0 0 0 0 0 0 0 0 0 0
0 0 0 0 0 0 0 0 0 0 0 0 0 0 0 0 0 0 0 0 0 0 0 0 0 0 0 0 0 0 0 0 0 0 0 0 0 0 0 0 0 0 0
0 0 0 0 0 0 0 0 0 0 0 0 0 0 0 0 0 0 0 0 0 0 0 0 0 0 0 0 0 0 0 0 0 0 0 0 0 0 0 0 0 0 0
Wind_Speed_500mb
35 39 42 44 47 49 55 58 60 61 61 61 61 63 66 70 78 84 88 89 89 87 92 91 91 96 97 91 92 90 91 86 78 56 53 58 66 71 75 69 63 56 46
31 34 36 39 42 45 49 53 53 54 53 52 54 57 60 63 67 71 81 86 88 88 86 88 95 88 87 92 91 93 93 87 81 76 63 64 62 63 72 70 66 54 48
23 25 27 30 36 38 39 42 43 43 43 48 52 55 58 60 60 61 66 73 79 85 86 88 85 84 94 92 91 92 93 87 82 75 60 60 61 65 77 74 65 56 50
19 18 19 21 24 28 32 35 37 38 42 45 48 52 54 56 59 60 61 67 75 80 79 81 85 84 85 86 86 87 87 83 79 65 70 67 65 73 79 74 65 63 59
26 24 20 22 25 26 30 34 38 41 43 46 49 52 54 57 58 60 61 64 68 75 81 83 83 85 84 79 77 82 81 81 74 84 78 65 76 80 77 72 69 62 58
24 27 28 31 31 31 34 36 40 45 49 54 53 52 54 56 56 58 63 67 67 73 77 80 81 78 73 69 71 73 79 80 78 75 71 72 69 67 69 64 63 68 68
33 30 30 37 41 41 45 49 51 51 52 53 56 57 58 57 56 59 63 67 67 73 77 79 78 76 70 68 70 73 61 60 59 63 65 71 69 60 63 64 69 62 67
39 38 39 38 41 45 49 50 56 57 57 62 64 63 63 65 60 60 64 71 72 75 75 76 76 74 72 71 73 65 60 58 57 62 69 56 59 55 45 45 47 64 65
43 44 45 47 48 49 53 55 53 54 59 62 64 67 69 69 63 61 65 73 79 80 79 78 76 74 64 65 70 66 64 61 56 64 63 60 57 46 45 49 58 61 65
45 43 45 51 53 53 51 52 55 57 61 64 68 68 67 68 64 62 65 76 82 80 79 78 76 69 60 69 74 72 71 66 70 68 55 49 58 50 53 53 57 63 65
44 44 47 47 53 58 56 52 53 55 57 61 65 66 66 65 62 61 65 72 79 80 80 79 74 65 60 65 76 72 68 63 78 73 65 70 62 54 59 60 60 62 60
44 44 44 46 48 53 59 59 56 55 55 55 57 61 62 60 59 58 64 69 72 75 76 73 67 56 61 69 70 63 72 79 79 76 67 58 58 58 64 65 62 64 58
47 46 46 45 47 47 46 47 48 47 49 51 53 57 57 52 52 54 59 60 58 70 74 70 63 60 58 64 69 74 74 76 72 68 56 50 56 58 65 63 61 61 62
54 50 49 48 46 44 39 34 32 34 36 40 43 47 47 46 45 46 48 49 48 57 73 70 58 51 55 63 70 62 61 73 67 57 54 43 44 49 51 52 58 59 65
60 57 52 51 49 45 38 34 30 31 35 39 40 41 43 44 38 41 39 39 37 46 66 68 60 51 53 64 79 75 71 76 77 70 50 47 50 53 48 46 49 56 65
66 63 57 53 50 50 47 39 34 35 33 34 37 42 39 37 36 34 32 29 26 29 56 66 65 57 55 63 68 71 69 73 74 69 61 54 54 49 50 54 50 56 60
68 65 61 54 52 49 49 48 46 33 38 41 40 38 35 34 29 27 25 23 22 25 52 57 58 57 56 56 61 67 67 65 74 81 78 70 63 60 54 63 66 65 65
64 60 58 57 51 49 48 45 41 43 45 41 36 37 36 31 27 25 18 18 23 26 41 55 51 49 46 48 52 57 57 58 57 60 65 69 64 61 62 66 69 73 72
59 57 53 52 49 45 44 45 43 40 37 35 33 30 31 31 30 26 21 21 21 27 30 46 40 39 43 44 41 40 41 45 46 47 53 59 59 63 65 61 60 57 58
52 51 53 49 44 38 37 39 39 37 35 34 35 34 29 24 23 26 27 28 26 25 22 21 38 23 24 28 33 35 43 43 44 45 45 44 49 54 56 51 52 53 52
50 48 45 45 39 34 33 33 34 33 33 31 30 30 25 23 20 17 24 28 28 27 26 24 23 24 35 40 40 41 44 44 44 44 44 44 44 47 45 47 49 49 50
44 41 36 33 31 28 27 27 27 26 26 26 29 26 22 19 21 19 18 21 27 29 29 30 31 32 35 36 39 40 42 43 44 46 47 48 48 49 50 50 49 50 52
34 33 31 25 25 27 29 29 28 26 25 26 28 30 29 26 24 23 22 21 22 23 24 25 27 29 31 34 37 39 42 44 47 50 52 53 54 54 53 53 54 55 55
31 27 25 24 23 25 26 27 27 27 28 28 29 30 30 29 28 28 29 29 30 30 31 32 34 37 40 42 44 46 48 50 51 53 55 57 57 58 59 59 58 57 56
25 24 23 20 19 19 20 19 20 20 21 23 24 25 25 23 22 22 22 22 22 21 22 22 23 24 27 30 32 35 36 38 41 43 45 47 48 50 53 55 55 54 52
22 20 18 16 15 14 13 12 13 12 12 11 13 13 14 14 14 14 14 16 19 21 24 25 27 29 30 32 34 35 36 37 39 40 41 40 41 42 43 43 43 42 41
Wind_Direction_500mb
278 271 266 263 259 256 254 257 261 263 263 262 259 257 255 252 249 251 253 255 256 258 256 256 260 264 260 255 254 247 244 239 241 240 237 242 236 228 223 218 218 221 223
280 275 270 262 259 257 260 264 266 266 264 261 257 256 257 257 256 252 250 252 254 256 259 259 261 259 257 259 254 249 244 241 237 237 238 233 229 231 225 221 220 218 224
312 296 279 269 264 264 266 269 269 267 263 260 260 261 263 263 262 258 256 256 256 258 259 260 261 263 260 255 253 246 242 238 234 241 229 231 227 229 219 215 218 221 226
331 318 319 308 298 289 283 278 272 268 263 263 264 265 265 263 262 260 259 258 260 260 262 262 260 261 261 258 253 246 239 233 232 223 233 226 232 223 212 216 212 227 228
333 312 318 320 321 310 297 290 286 279 272 268 266 266 265 263 263 264 260 260 265 265 263 262 261 263 261 258 251 243 235 232 222 227 229 226 224 209 210 214 223 223 243
317 317 309 302 303 303 296 293 289 287 285 281 272 270 272 273 269 268 262 265 265 266 267 264 263 262 257 251 244 238 239 231 233 228 222 221 215 218 218 226 221 226 234
316 306 300 298 298 299 297 294 289 286 282 275 273 273 273 274 274 267 264 264 265 268 269 267 265 262 254 245 240 237 234 239 238 232 228 220 218 221 240 229 224 227 230
329 323 315 302 294 285 280 286 290 288 288 284 280 274 272 274 269 266 266 265 263 264 266 266 264 260 253 243 237 230 226 223 222 225 223 228 238 241 245 230 220 223 234
333 328 320 311 304 298 297 290 284 280 278 278 277 275 275 276 275 270 263 260 262 263 265 263 260 255 249 248 237 228 235 225 213 219 224 230 231 233 229 222 223 229 234
336 329 324 318 313 309 304 298 291 286 283 280 277 276 276 274 273 269 263 261 261 262 264 263 259 251 246 246 229 241 229 217 214 221 229 238 249 221 218 222 229 236 237
334 333 327 320 313 308 303 299 295 291 284 280 278 277 276 275 274 271 268 267 266 264 264 265 261 247 240 235 239 242 234 222 223 232 245 249 237 217 224 229 235 243 243
323 323 323 323 320 312 308 306 303 298 292 286 283 281 280 281 280 276 272 270 270 268 268 267 263 247 238 237 238 240 231 228 234 240 241 248 229 221 231 235 240 247 248
318 317 314 315 316 314 312 309 306 304 303 300 297 293 292 290 286 282 278 277 272 264 266 266 267 251 248 234 229 234 237 233 236 237 243 248 240 230 234 239 246 246 249
309 309 306 304 306 306 305 310 318 320 314 308 304 301 299 294 292 293 291 288 279 250 256 263 268 261 251 232 232 233 229 230 230 244 249 246 240 241 246 247 246 252 255
301 302 300 296 294 295 290 294 301 307 308 309 308 303 302 301 301 293 293 285 276 255 252 256 257 258 245 234 234 242 232 233 236 241 244 249 247 242 248 254 255 253 254
297 296 295 291 286 285 280 279 287 293 293 298 301 300 298 296 300 298 294 290 276 246 249 250 253 255 251 240 233 242 239 242 241 238 243 250 252 252 264 261 265 269 266
293 293 292 289 286 281 278 278 282 280 293 298 298 294 295 294 295 299 298 289 269 238 244 252 256 257 255 256 248 243 242 247 248 245 251 254 254 258 266 276 267 267 272
294 292 293 291 286 280 275 273 276 284 288 289 289 291 288 285 284 288 295 280 267 244 243 254 259 262 266 263 258 255 256 250 252 261 260 256 254 260 267 274 268 266 268
298 296 294 292 288 280 275 271 274 276 281 287 289 288 286 282 273 266 264 272 267 263 249 245 264 273 273 271 271 269 262 259 262 267 272 259 253 257 265 271 270 270 271
299 298 297 293 287 278 270 275 280 280 280 281 284 288 289 293 286 261 249 254 265 263 272 272 252 262 266 264 260 266 275 272 270 270 269 266 262 263 267 266 266 268 270
302 300 297 291 286 281 274 274 276 277 282 286 288 287 292 295 292 274 244 249 257 264 261 259 258 256 258 263 267 270 269 270 272 273 274 272 271 269 269 271 269 269 273
306 304 299 296 288 277 275 274 278 279 284 285 285 288 289 291 284 275 268 263 261 263 263 262 260 256 255 257 258 260 264 268 272 274 274 275 275 275 275 274 271 271 273
308 308 303 294 284 276 274 274 276 272 269 271 273 274 276 276 273 270 267 264 263 263 262 262 263 263 263 262 262 261 261 262 262 263 265 267 269 270 270 269 268 270 270
308 307 304 298 288 280 277 275 272 266 262 263 266 270 274 275 272 271 272 271 269 268 268 269 270 270 270 269 269 269 269 268 267 265 265 265 265 265 265 266 267 269 269
320 316 312 305 295 285 279 274 270 265 262 262 266 270 273 276 275 273 272 272 276 277 277 277 278 279 281 281 279 278 277 276 274 273 272 271 269 268 268 268 268 267 267
331 329 326 321 314 305 295 286 279 275 274 272 270 270 273 277 282 283 282 286 291 294 291 288 287 287 287 287 287 288 288 289 287 284 283 281 279 276 274 273 272 270 269
Wind_Speed_850mb
35 39 42 44 47 49 55 58 60 61 61 61 61 63 66 70 78 84 88 89 89 87 92 91 91 96 97 91 92 90 91 86 78 56 53 58 66 71 75 69 63 56 46
31 34 36 39 42 45 49 53 53 54 53 52 54 57 60 63 67 71 81 86 88 88 86 88 95 88 87 92 91 93 93 87 81 76 63 64 62 63 72 70 66 54 48
23 25 27 30 36 38 39 42 43 43 43 48 52 55 58 60 60 61 66 73 79 85 86 88 85 84 94 92 91 92 93 87 82 75 60 60 61 65 77 74 65 56 50
19 18 19 21 24 28 32 35 37 38 42 45 48 52 54 56 59 60 61 67 75 80 79 81 85 84 85 86 86 87 87 83 79 65 70 67 65 73 79 74 65 63 59
26 24 20 22 25 26 30 34 38 41 43 46 49 52 54 57 58 60 61 64 68 75 81 83 83 85 84 79 77 82 81 81 74 84 78 65 76 80 77 72 69 62 58
24 27 28 31 31 31 34 36 40 45 49 54 53 52 54 56 56 58 63 67 67 73 77 80 81 78 73 69 71 73 79 80 78 75 71 72 69 67 69 64 63 68 68
33 30 30 37 41 41 45 49 51 51 52 53 56 57 58 57 56 59 63 67 67 73 77 79 78 76 70 68 70 73 61 60 59 63 65 71 69 60 63 64 69 62 67
39 38 39 38 41 45 49 50 56 57 57 62 64 63 63 65 60 60 64 71 72 75 75 76 76 74 72 71 73 65 60 58 57 62 69 56 59 55 45 45 47 64 65
43 44 45 47 48 49 53 55 53 54 59 62 64 67 69 69 63 61 65 73 79 80 79 78 76 74 64 65 70 66 64 61 56 64 63 60 57 46 45 49 58 61 65
45 43 45 51 53 53 51 52 55 57 61 64 68 68 67 68 64 62 65 76 82 80 79 78 76 69 60 69 74 72 71 66 70 68 55 49 58 50 53 53 57 63 65
44 44 47 47 53 58 56 52 53 55 57 61 65 66 66 65 62 61 65 72 79 80 80 79 74 65 60 65 76 72 68 63 78 73 65 70 62 54 59 60 60 62 60
44 44 44 46 48 53 59 59 56 55 55 55 57 61 62 60 59 58 64 69 72 75 76 73 67 56 61 69 70 63 72 79 79 76 67 58 58 58 64 65 62 64 58
47 46 46 45 47 47 46 47 48 47 49 51 53 57 57 52 52 54 59 60 58 70 74 70 63 60 58 64 69 74 74 76 72 68 56 50 56 58 65 63 61 61 62
54 50 49 48 46 44 39 34 32 34 36 40 43 47 47 46 45 46 48 49 48 57 73 70 58 51 55 63 70 62 61 73 67 57 54 43 44 49 51 52 58 59 65
60 57 52 51 49 45 38 34 30 31 35 39 40 41 43 44 38 41 39 39 37 46 66 68 60 51 53 64 79 75 71 76 77 70 50 47 50 53 48 46 49 56 65
66 63 57 53 50 50 47 39 34 35 33 34 37 42 39 37 36 34 32 29 26 29 56 66 65 57 55 63 68 71 69 73 74 69 61 54 54 49 50 54 50 56 60
68 65 61 54 52 49 49 48 46 33 38 41 40 38 35 34 29 27 25 23 22 25 52 57 58 57 56 56 61 67 67 65 74 81 78 70 63 60 54 63 66 65 65
64 60 58 57 51 49 48 45 41 43 45 41 36 37 36 31 27 25 18 18 23 26 41 55 51 49 46 48 52 57 57 58 57 60 65 69 64 61 62 66 69 73 72
59 57 53 52 49 45 44 45 43 40 37 35 33 30 31 31 30 26 21 21 21 27 30 46 40 39 43 44 41 40 41 45 46 47 53 59 59 63 65 61 60 57 58
52 51 53 49 44 38 37 39 39 37 35 34 35 34 29 24 23 26 27 28 26 25 22 21 38 23 24 28 33 35 43 43 44 45 45 44 49 54 56 51 52 53 52
50 48 45 45 39 34 33 33 34 33 33 31 30 30 25 23 20 17 24 28 28 27 26 24 23 24 35 40 40 41 44 44 44 44 44 44 44 47 45 47 49 49 50
44 41 36 33 31 28 27 27 27 26 26 26 29 26 22 19 21 19 18 21 27 29 29 30 31 32 35 36 39 40 42 43 44 46 47 48 48 49 50 50 49 50 52
34 33 31 25 25 27 29 29 28 26 25 26 28 30 29 26 24 23 22 21 22 23 24 25 27 29 31 34 37 39 42 44 47 50 52 53 54 54 53 53 54 55 55
31 27 25 24 23 25 26 27 27 27 28 28 29 30 30 29 28 28 29 29 30 30 31 32 34 37 40 42 44 46 48 50 51 53 55 57 57 58 59 59 58 57 56
25 24 23 20 19 19 20 19 20 20 21 23 24 25 25 23 22 22 22 22 22 21 22 22 23 24 27 30 32 35 36 38 41 43 45 47 48 50 53 55 55 54 52
22 20 18 16 15 14 13 12 13 12 12 11 13 13 14 14 14 14 14 16 19 21 24 25 27 29 30 32 34 35 36 37 39 40 41 40 41 42 43 43 43 42 41
Wind_Direction_850mb
278 271 266 263 259 256 254 257 261 263 263 262 259 257 255 252 249 251 253 255 256 258 256 256 260 264 260 255 254 247 244 239 241 240 237 242 236 228 223 218 218 221 223
280 275 270 262 259 257 260 264 266 266 264 261 257 256 257 257 256 252 250 252 254 256 259 259 261 259 257 259 254 249 244 241 237 237 238 233 229 231 225 221 220 218 224
312 296 279 269 264 264 266 269 269 267 263 260 260 261 263 263 262 258 256 256 256 258 259 260 261 263 260 255 253 246 242 238 234 241 229 231 227 229 219 215 218 221 226
331 318 319 308 298 289 283 278 272 268 263 263 264 265 265 263 262 260 259 258 260 260 262 262 260 261 261 258 253 246 239 233 232 223 233 226 232 223 212 216 212 227 228
333 312 318 320 321 310 297 290 286 279 272 268 266 266 265 263 263 264 260 260 265 265 263 262 261 263 261 258 251 243 235 232 222 227 229 226 224 209 210 214 223 223 243
317 317 309 302 303 303 296 293 289 287 285 281 272 270 272 273 269 268 262 265 265 266 267 264 263 262 257 251 244 238 239 231 233 228 222 221 215 218 218 226 221 226 234
316 306 300 298 298 299 297 294 289 286 282 275 273 273 273 274 274 267 264 264 265 268 269 267 265 262 254 245 240 237 234 239 238 232 228 220 218 221 240 229 224 227 230
329 323 315 302 294 285 280 286 290 288 288 284 280 274 272 274 269 266 266 265 263 264 266 266 264 260 253 243 237 230 226 223 222 225 223 228 238 241 245 230 220 223 234
333 328 320 311 304 298 297 290 284 280 278 278 277 275 275 276 275 270 263 260 262 263 265 263 260 255 249 248 237 228 235 225 213 219 224 230 231 233 229 222 223 229 234
336 329 324 318 313 309 304 298 291 286 283 280 277 276 276 274 273 269 263 261 261 262 264 263 259 251 246 246 229 241 229 217 214 221 229 238 249 221 218 222 229 236 237
334 333 327 320 313 308 303 299 295 291 284 280 278 277 276 275 274 271 268 267 266 264 264 265 261 247 240 235 239 242 234 222 223 232 245 249 237 217 224 229 235 243 243
323 323 323 323 320 312 308 306 303 298 292 286 283 281 280 281 280 276 272 270 270 268 268 267 263 247 238 237 238 240 231 228 234 240 241 248 229 221 231 235 240 247 248
318 317 314 315 316 314 312 309 306 304 303 300 297 293 292 290 286 282 278 277 272 264 266 266 267 251 248 234 229 234 237 233 236 237 243 248 240 230 234 239 246 246 249
309 309 306 304 306 306 305 310 318 320 314 308 304 301 299 294 292 293 291 288 279 250 256 263 268 261 251 232 232 233 229 230 230 244 249 246 240 241 246 247 246 252 255
301 302 300 296 294 295 290 294 301 307 308 309 308 303 302 301 301 293 293 285 276 255 252 256 257 258 245 234 234 242 232 233 236 241 244 249 247 242 248 254 255 253 254
297 296 295 291 286 285 280 279 287 293 293 298 301 300 298 296 300 298 294 290 276 246 249 250 253 255 251 240 233 242 239 242 241 238 243 250 252 252 264 261 265 269 266
293 293 292 289 286 281 278 278 282 280 293 298 298 294 295 294 295 299 298 289 269 238 244 252 256 257 255 256 248 243 242 247 248 245 251 254 254 258 266 276 267 267 272
294 292 293 291 286 280 275 273 276 284 288 289 289 291 288 285 284 288 295 280 267 244 243 254 259 262 266 263 258 255 256 250 252 261 260 256 254 260 267 274 268 266 268
298 296 294 292 288 280 275 271 274 276 281 287 289 288 286 282 273 266 264 272 267 263 249 245 264 273 273 271 271 269 262 259 262 267 272 259 253 257 265 271 270 270 271
299 298 297 293 287 278 270 275 280 280 280 281 284 288 289 293 286 261 249 254 265 263 272 272 252 262 266 264 260 266 275 272 270 270 269 266 262 263 267 266 266 268 270
302 300 297 291 286 281 274 274 276 277 282 286 288 287 292 295 292 274 244 249 257 264 261 259 258 256 258 263 267 270 269 270 272 273 274 272 271 269 269 271 269 269 273
306 304 299 296 288 277 275 274 278 279 284 285 285 288 289 291 284 275 268 263 261 263 263 262 260 256 255 257 258 260 264 268 272 274 274 275 275 275 275 274 271 271 273
308 308 303 294 284 276 274 274 276 272 269 271 273 274 276 276 273 270 267 264 263 263 262 262 263 263 263 262 262 261 261 262 262 263 265 267 269 270 270 269 268 270 270
308 307 304 298 288 280 277 275 272 266 262 263 266 270 274 275 272 271 272 271 269 268 268 269 270 270 270 269 269 269 269 268 267 265 265 265 265 265 265 266 267 269 269
320 316 312 305 295 285 279 274 270 265 262 262 266 270 273 276 275 273 272 272 276 277 277 277 278 279 281 281 279 278 277 276 274 273 272 271 269 268 268 268 268 267 267
331 329 326 321 314 305 295 286 279 275 274 272 270 270 273 277 282 283 282 286 291 294 291 288 287 287 287 287 287 288 288 289 287 284 283 281 279 276 274 273 272 270 269